Tracking 30400 objects as of 13-May-2025
HD Live streaming from Space Station
objects crossing your sky now

BREEZE-M DEB (TANK)

Track BREEZE-M DEB (TANK) now!
10-day predictions


NORAD ID: 36501
Int'l Code: 2010-010C
Perigee: 325.1 km
Apogee: 12,704.3 km
Inclination: 49.6 °
Period: 242.6 minutes
Semi major axis: 12885 km
RCS: 5.0119 m2 (large)
Launch date: March 20, 2010
Source: Commonwealth of Independent States (former USSR) (CIS)
Launch site: TYURATAM MISSILE AND SPACE COMPLEX (TTMTR)

Note: This is SATELLITE DEBRIS
Your satellite tracking list
Your tracking list is empty




NASA's NSSDC Master Catalog

Two Line Element Set (TLE):
1 36501U 10010C   25132.88398667  .00003594  00000-0  67734-3 0  9996
2 36501  49.6252 205.9306 4803482 207.7271 115.3492  5.93529233318946
Source of the keplerian elements: AFSPC